PokerAstro : Agen Poker Online, Agen DominoBet, Bandar Ceme

Agen Bola, Agen casino, Bandar Bola, Situs Bola

Jackpot

Texas Poker Multi Jackpot System

Kini Telah hadir Jackpot SUPER ROYAL FLUSH

Kini Telah hadir Jackpot 2000 (khusus table VIP keatas).

Ikutilah global jackpot yang tersedia di system kami, dengan system jackpot terbaru dan pertama di indonesia, anda dapat membeli jackpot dengan harga 100 rupiah saja dan menangkan hadiahnya hingga puluhan juta rupiah.

Jackpot bukanlah suatu keharusan untuk dibeli, namun kami memberikan suatu fitur tambahan untuk member tercinta dari www.pokerastro.com.

Terdapat tiga pilihan harga jackpot yang bisa anda beli yaitu :100,500,1000 dan 2000(khusus table VIP Keatas) rupiah.

Hadiah dari Multi jackpot system www.pokerastro.com

  1. full house x 10 harga jackpot yang anda beli.
      (contoh:anda membeli 1000 maka:1000 X10 = 10.000)
  2. four of kind x 250 harga jackpot yang anda beli
      (contoh:anda membeli 1000 maka:1000 X250 = 250.000)
  3. Straight flush x 1200
      (contoh:anda membeli 1000 maka:1000 X1200 = 1.200.000)
  4. Royal flush x 10000 harga jackpot yang anda beli
      (contoh:anda membeli 1000 maka:1000 X10000 = 10.000.000)
  5. SUPER ROYAL FLUSH x 30000 harga jackpot yang anda beli
      (contoh:anda membeli 1000 maka:1000 X30000 = 30.000.000)

Kondisi kartu

  1. full house adalah kondisi kartu dimana kartu anda dan kartu tengah dengan total 7 kartu bisa mendapatkan nilai 5 kartu dengan kombinasi 1 tris(three of kind) dan 1 pair, contoh 3 kartu 10 dan 2 kartu 5
  2. Four of kind adalah kondisi kartu dimana kartu anda dan kartu tengah dengan total 7 kartu bisa mendapatkan nilai 5 kartu dengan kombinasi 4 kartu yang sama jumlah dan 1 kartu apapun juga contoh anda mendapatkan 4 buah kartu angka 3 dan 1 kartu apapun.
  3. Staright flush adalah kondisi kartu dimana kartu anda dan kartu tengah dengan total 7 kartu bisa mendapatkan nilai 5 kartu dengan kombinasi seri / staright dengan kembang yang sama contoh : urutan kartu dari angka 5, 6, 7, 8 , 9 10 dengan kembang yg sama misalnya as hati
  4. Royal flush adalah kondisi kartu dimana kartu anda dan kartu tengah dengan total 7 kartu bisa mendapatkan nilai 5 kartu dengan kombinasi seri / staright dengan kembang yang sama tetapi kartu tersebut haruslah dimulai dari 10. contoh 10, Queen, Jack, King dan aces dengan kembang yang sama
  5. Super Royal flush adalah kondisi kartu dimana Kedua kartu anda digabung dengan 3 kartu pertama meja haruslah royal flush. contoh kartu anda 10,Queen kembang sama dan 3 kartu pertama meja adalah Jack, King dan aces dengan kembang yang sama

Demikian adalah penjelasan dari Multi Jackpot www.pokerastro.com terima kasih dan selamat bermain salam hoki dari kami

Texas Poker Jackpot Winner

TOP SUPER ROYAL FLUSH
No.TanggalNamaPriceWin
122/09 02:24TAUN101Super Royal flush30,000,000
221/09 14:11ROYALJOZZSuper Royal flush60,000,000
321/09 13:43BA_ATIYOSuper Royal flush6,000,000
421/09 12:23B8EKCBJIYMSuper Royal flush3,000,000
521/09 08:32TUPO25Super Royal flush3,000,000
TOP ROYAL FLUSH
No.TanggalNamaPriceWin
122/09 03:28KAWUL696Royal flush5,000,000
222/09 03:24DINBOHYERoyal flush5,000,000
322/09 03:16GANYANG27Royal flush10,000,000
422/09 03:10BDCC9BA9Royal flush2,000,000
522/09 02:56AMARASULI8Royal flush5,000,000
TOP STRAIGHT FLUSH
No.TanggalNamaPriceWin
122/09 03:38SABENA33Straight Flush240,000
222/09 03:37NOV3NStraight Flush240,000
322/09 03:36D81FA974Straight Flush600,000
422/09 03:34BUNGDED81Straight Flush600,000
522/09 03:33CUGAK47Straight Flush600,000
LATEST JACKPOT
No.TanggalNamaPriceWin
122/09 03:39MAHADY86Full House2,000
222/09 03:39CAR378Full House2,000
322/09 03:39LAUK99Full House1,000
422/09 03:39KUDA68Full House2,000
522/09 03:39OKTAVIANDYFull House1,000
622/09 03:39KUBUTKPFull House5,000
722/09 03:39TIPENHFull House500
822/09 03:39FN1212Full House2,000
922/09 03:39E9891BC8Full House1,000
1022/09 03:39JOBOL86Full House1,000
1122/09 03:38KB4171SYFull House20,000
1222/09 03:38WALIDZ22Full House5,000
1322/09 03:38PAKCHI_20Full House2,000
1422/09 03:38OMOY95Full House1,000
1522/09 03:38C944N4746Full House2,000
1622/09 03:38MAKAN98Full House10,000
1722/09 03:38AJOY_JAYAAFull House10,000
1822/09 03:38RAFRAM09Full House20,000
1922/09 03:38BANUARSITOFull House5,000
2022/09 03:38SODOM96Full House1,000
2122/09 03:38CRAYTOS90Full House5,000
2222/09 03:38L4S11AHFull House5,000
2322/09 03:38YANTEXXFull House5,000
2422/09 03:38MOTT020Full House5,000
2522/09 03:38K_HOEFull House5,000
2622/09 03:38ZELVIE16Full House20,000
2722/09 03:38PETIR28Full House10,000
2822/09 03:38TGVPLMFull House2,000
2922/09 03:38NAGA2689Full House5,000
3022/09 03:38SAWENABNIFour Of A Kind25,000
3122/09 03:38NINJA26Full House5,000
3222/09 03:38EZHECIEL70Full House10,000
3322/09 03:38BACC63B8Full House2,000
3422/09 03:38LOK_ANFull House5,000
3522/09 03:38IBONPOWE02Full House1,000
3622/09 03:38SEPAT93Full House2,000
3722/09 03:38KODOKJRFull House20,000
3822/09 03:38MERCY_Full House2,000
3922/09 03:38C16HOPE7501Full House20,000
4022/09 03:38E318EFD4Full House5,000
4122/09 03:38B9FE43F9Full House5,000
4222/09 03:38PASHADELIAFull House2,000
4322/09 03:38SPACE2Full House2,000
4422/09 03:38NGM31Full House2,000
4522/09 03:38J72MG307OSFull House1,000
4622/09 03:38PERKOKOS00Full House5,000
4722/09 03:38KEYEUP059Full House2,000
4822/09 03:38BISAPAKEFull House2,000
4922/09 03:38MRHUAFull House2,000
5022/09 03:38ATAKIFull House2,000

Domino Multi Jackpot System

Ikutilah global jackpot yang tersedia di system kami, dengan system jackpot terbaru dan pertama di indonesia, anda dapat membeli jackpot dengan harga 100 rupiah saja dan menangkan hadiahnya hingga puluhan juta rupiah.

Jackpot bukanlah suatu keharusan untuk dibeli, namun kami memberikan suatu fitur tambahan untuk member tercinta dari www.pokerastro.com.

Terdapat tiga pilihan harga jackpot yang bisa anda beli yaitu :100,500 dan 1000 rupiah.

Hadiah dari Multi jackpot system www.pokerastro.com

  1. Murni Kecil x 50 harga jackpot yang anda beli.
      (contoh:anda membeli 1000 maka:1000 X 50 = 50.000)
  2. Murni Besar x 50 harga jackpot yang anda beli
      (contoh:anda membeli 1000 maka:1000 X 50 = 50.000)
  3. BALAK x 100 harga jackpot yang anda beli
      (contoh:anda membeli 1000 maka:1000 X 100 = 100.000)
  4. ENAM DEWA x 6666 harga jackpot yang anda beli
      (contoh:anda membeli 1000 maka:1000 X 6666 = 6.666.000)

Demikian adalah penjelasan dari Multi Jackpot www.pokerastro.com terima kasih dan selamat bermain salam hoki dari kami

Domino Jackpot Winner

TOP ENAM DEWA
No.TanggalNamaPriceWin
122/09 01:09WISMA92murni enam3,333,000
222/09 01:08ABAY888888murni enam3,333,000
322/09 00:44AMSEO99murni enam3,333,000
422/09 00:43DYCK22murni enam6,666,000
521/09 23:35TEMPE444murni enam666,600
TOP BALAK
No.TanggalNamaPriceWin
122/09 03:37GOWOK01balak50,000
222/09 03:35CAGURR04balak10,000
322/09 03:35ESHAALbalak50,000
422/09 03:26CINTAEMUT7balak100,000
522/09 03:08PHCP123balak100,000
LATEST JACKPOT
No.TanggalNamaPriceWin
122/09 03:38UJEHOKI99murni besar50,000
222/09 03:37GOWOK01balak50,000
322/09 03:36R3J3KI2018murni kecil25,000
422/09 03:36ACIL66murni besar50,000
522/09 03:36YOFI88murni besar50,000
622/09 03:35P4C1L0N9murni kecil50,000
722/09 03:35CAGURR04balak10,000
822/09 03:35ESHAALbalak50,000
922/09 03:34UJEHOKI99murni besar50,000
1022/09 03:34DWBT12031murni besar50,000
1122/09 03:33HK4DMAMANmurni besar50,000
1222/09 03:33TANKSUMPUmurni besar50,000
1322/09 03:32ASR1067murni kecil5,000
1422/09 03:30CINTEK56murni kecil5,000
1522/09 03:30GA3S2I9JF2murni kecil5,000
1622/09 03:29A96INACEP88murni besar50,000
1722/09 03:29ED473B6Dmurni besar50,000
1822/09 03:29ESHAALmurni kecil25,000
1922/09 03:29HK4DMAMANmurni kecil50,000
2022/09 03:29RASAKNA_LEmurni besar50,000
2122/09 03:26U7VHEVCNM9murni kecil50,000
2222/09 03:26CINTAEMUT7balak100,000
2322/09 03:25CB77MENANGAN69murni kecil50,000
2422/09 03:24NAGA_9murni besar50,000
2522/09 03:23NMBEGEDHUTmurni besar50,000
2622/09 03:23RIJALANmurni besar50,000
2722/09 03:23UDIL99murni kecil50,000
2822/09 03:21PLUR066murni kecil25,000
2922/09 03:21ADEKBDmurni besar25,000
3022/09 03:21PTR80Tmurni kecil50,000
3122/09 03:20CEKIHC0Ymurni besar5,000
3222/09 03:20WAHYU7326murni besar50,000
3322/09 03:20CINTAEMUT7murni besar50,000
3422/09 03:19B0X2RYHFVYlucky9910,000
3522/09 03:18JYD0M4GZZRmurni besar25,000
3622/09 03:18BP883256murni besar25,000
3722/09 03:17BARBARQQmurni besar50,000
3822/09 03:16KUY88888murni kecil50,000
3922/09 03:15MP4DEMANGGPmurni besar50,000
4022/09 03:15BUSABU77murni kecil50,000
4122/09 03:15ISAF20murni besar50,000
4222/09 03:14ISAF20murni besar50,000
4322/09 03:14AGUS9194murni kecil25,000
4422/09 03:13BLACK_OPSmurni kecil50,000
4522/09 03:13JONKUR02murni kecil25,000
4622/09 03:13MONYET986murni besar5,000
4722/09 03:13BEGUG20murni besar50,000
4822/09 03:12RIGAHAYUlucky992,500
4922/09 03:10Z03LF1K4Rmurni kecil50,000
5022/09 03:10R1JWNM8F74murni besar50,000

Ceme Multi Jackpot System

Jackpot dilihat dari gabungan kartu pemain dengan kartu bandar. Bandar harus membeli jackpot sebanyak jumlah player yang sedang duduk. Sebagai contoh bila terdapat 3 pemain duduk bermain, dan bandar memutuskan untuk membeli jackpot Rp 1.000, maka pada periode tersebut bandar akan membeli jackpot sebanyak 3xRp1.000 = Rp3.000.

Jackpot bukanlah suatu keharusan untuk dibeli, namun kami memberikan suatu fitur tambahan untuk member tercinta dari www.pokerastro.com.

Terdapat tiga pilihan harga jackpot yang bisa anda beli yaitu :100,500 dan 1000 rupiah.

Hadiah dari Multi jackpot system www.pokerastro.com

  1. Murni Kecil x 50 harga jackpot yang anda beli.
      (contoh:anda membeli 1000 maka:1000 X 50 = 50.000)
  2. Murni Besar x 50 harga jackpot yang anda beli
      (contoh:anda membeli 1000 maka:1000 X 50 = 50.000)
  3. BALAK x 200 harga jackpot yang anda beli
      (contoh:anda membeli 1000 maka:1000 X 200 = 200.000)
  4. ENAM DEWA x 6666 harga jackpot yang anda beli
      (contoh:anda membeli 1000 maka:1000 X 6666 = 6.666.000)

Demikian adalah penjelasan dari Multi Jackpot www.pokerastro.com terima kasih dan selamat bermain salam hoki dari kami

Ceme Jackpot Winner

TOP ENAM DEWA
No.TanggalNamaPriceWin
122/09 03:28ERBEmurni enam6,666,000
222/09 03:15THIO10murni enam6,666,000
322/09 03:15ZE13murni enam666,600
422/09 03:13UDEDmurni enam6,666,000
522/09 03:13AHMAD7777murni enam666,600
TOP BALAK
No.TanggalNamaPriceWin
122/09 03:38REQTUN1IFKbalak200,000
222/09 03:38CACA101balak200,000
322/09 03:37DHONYY12balak100,000
422/09 03:37VEXENN7E2Hbalak20,000
522/09 03:37WAHYU1933_balak200,000
LATEST JACKPOT
No.TanggalNamaPriceWin
122/09 03:39NDHUT99murni kecil50,000
222/09 03:38HELZImurni besar25,000
322/09 03:38REQTUN1IFKbalak200,000
422/09 03:38CACA101balak200,000
522/09 03:38OPICK789murni kecil5,000
622/09 03:38STWmurni kecil25,000
722/09 03:38JIMMYA999murni besar5,000
822/09 03:38ALIN83murni kecil50,000
922/09 03:38SAKURMAUmurni kecil50,000
1022/09 03:37CIMURAH890murni kecil50,000
1122/09 03:37AULIA2712murni kecil50,000
1222/09 03:37B5522195murni besar25,000
1322/09 03:37MALIKI32murni besar5,000
1422/09 03:37DHONYY12murni besar25,000
1522/09 03:37DHONYY12balak100,000
1622/09 03:37VEXENN7E2Hbalak20,000
1722/09 03:37GEFORCE78murni besar50,000
1822/09 03:37MTW01murni besar25,000
1922/09 03:37KUPLE212murni besar5,000
2022/09 03:37CROOT1140murni besar50,000
2122/09 03:37WAHYU1933_balak200,000
2222/09 03:37ADIELI02balak100,000
2322/09 03:37ZX456murni besar5,000
2422/09 03:37MOKASIHDA6murni besar50,000
2522/09 03:37SEP0N9murni besar5,000
2622/09 03:37UL4Y168murni besar50,000
2722/09 03:37BAT123456murni besar50,000
2822/09 03:36ZITOmurni besar50,000
2922/09 03:36F4A2D2D2murni besar5,000
3022/09 03:36MBAHBEK666murni kecil50,000
3122/09 03:36MANGUN123murni besar50,000
3222/09 03:36LORD333murni kecil50,000
3322/09 03:36IDPRO77754murni kecil50,000
3422/09 03:36TUNKIRmurni besar25,000
3522/09 03:36CMD124367murni besar25,000
3622/09 03:36JAPRA979murni besar25,000
3722/09 03:36GADONGmurni besar50,000
3822/09 03:36OPICK789murni besar5,000
3922/09 03:36A53IZ23murni besar50,000
4022/09 03:36SUKEPmurni besar5,000
4122/09 03:36WARRIOR01balak200,000
4222/09 03:35KUPLE212murni kecil5,000
4322/09 03:35K1L7IHBK8Hmurni besar50,000
4422/09 03:35SOMIN99murni besar5,000
4522/09 03:35SAKURMAUmurni besar50,000
4622/09 03:35GADISKU11balak200,000
4722/09 03:35IMLSLGL2GIbalak100,000
4822/09 03:35ZIMI92murni kecil50,000
4922/09 03:35RONNY4murni kecil50,000
5022/09 03:34CACAHUYmurni kecil50,000